Location: Unspecified
(0.0000°N, 0.0000°E)
Time: 12:12:05
(UTC+00:00)

NOAA 16 DEB - Visible Passes

Search period start: 20 July 2025 00:00
Search period end: 30 July 2025 00:00
Orbit: 831 x 839 km, 98.6° (Epoch: 19 July)

Date Brightness Start Highest point End Pass type
(mag) Time Alt. Az. Time Alt. Az. Time Alt. Az.
20 Jul ? 20:15:57 56° N 20:15:57 56° N 20:20:11 10° N visible
21 Jul ? 19:59:18 48° NE 19:59:18 48° NE 20:03:36 10° N visible
22 Jul ? 19:42:40 33° ENE 19:42:40 33° ENE 19:46:48 10° NNE visible
22 Jul ? 21:24:19 12° WNW 21:24:19 12° WNW 21:25:07 10° WNW visible
23 Jul ? 19:26:00 22° ENE 19:26:00 22° ENE 19:29:40 10° NNE visible
23 Jul ? 21:07:41 19° WNW 21:07:41 19° WNW 21:09:55 10° NW visible
24 Jul ? 19:09:21 14° ENE 19:09:21 14° ENE 19:11:55 10° NE visible
24 Jul ? 20:51:02 29° WNW 20:51:02 29° WNW 20:54:11 10° NW visible
25 Jul ? 20:34:23 42° NW 20:34:23 42° NW 20:38:06 10° NNW visible
26 Jul ? 20:17:44 53° NNW 20:17:44 53° NNW 20:21:48 10° NNW visible
27 Jul ? 20:01:05 48° NNE 20:01:05 48° NNE 20:05:16 10° N visible
28 Jul ? 19:44:26 35° NE 19:44:26 35° NE 19:48:28 10° NNE visible
28 Jul ? 21:26:06 11° WNW 21:26:06 11° WNW 21:26:29 10° WNW visible
29 Jul ? 19:27:47 23° ENE 19:27:47 23° ENE 19:31:23 10° NNE visible
29 Jul ? 21:09:28 18° WNW 21:09:28 18° WNW 21:11:23 10° NW visible
